User: anonymous   Login
Location: Unspecified
(0.0000°N, 0.0000°E)
Time: 00:11:52
(UTC+00:00)
Language:

YAOGAN 3 - Orbit

View from above orbital plane
View from above orbital plane
View from above satellite
View from above satellite

Ground track
Ground track

The orbit data is extracted from the following two-line orbital elements,

1 32289U 07055A   18112.50719461 -.00000031  00000-0  28764-5 0  9994
2 32289  98.0070 118.8448 0001808  73.8569 286.2855 14.80888125564511
Epoch (UTC): 22 April 2018 12:10:21
Eccentricity: 0.0001808
inclination: 98.0070°
perigee height: 625 km
apogee height: 628 km
right ascension of ascending node: 118.8448°
argument of perigee: 73.8569°
revolutions per day: 14.80888125
mean anomaly at epoch: 286.2855°
orbit number at epoch: 56451

The dashed part of the orbit path shows where the satellite is in the earth's shadow,  

DLR